Location: Csohesd
(46.2500°N, 22.6167°E)
Time: 04:34:30
(UTC+00:00)

Tiangong - Pass Details

Date: 21 October 2021
Orbit: 380 x 384 km, 41.5° (Epoch: 04 December)

Event Time Altitude Azimuth Distance (km) Brightness Sun altitude
Rises 16:32:38 0° 238° (WSW) 2,270 6.2 -11.1°
Reaches altitude 10° 16:34:54 10° 226° (SW) 1,414 4.7 -11.5°
Maximum altitude 16:37:38 26° 167° (SSE) 801 2.6 -11.9°
Enters shadow 16:39:18 17° 121° (ESE) 1,071 2.8 -12.2°
